{"data":{"norad_id":43250,"epoch":"2026-05-24T22:25:19.396992Z","epoch_age_seconds":81460,"freshness":"FRESH","line1":"1 43250U 18030B   26144.93425228  .00000080  00000+0  21403-4 0  9999","line2":"2 43250  86.3938 300.0939 0002189  93.8302 266.3144 14.34218061426820","mean_motion":14.34218061,"eccentricity":0.0002189,"inclination_deg":86.3938,"raan_deg":300.0939,"arg_perigee_deg":93.8302,"mean_anomaly_deg":266.3144,"bstar":2.1403e-5,"rev_number":42682,"period_min":100.40314225272,"perigee_km":776.09971459363,"apogee_km":779.23252519952,"semimajor_km":7155.8031198966,"source":"CELESTRAK","updated_at":"2026-05-25T13:38:14.807289Z"}}